STARLINK-31955, 59939

Orbit data source: Space-Track

STARLINK-31955, 59939 is a payload satellite owned by SpaceX/Seattle (US) in LEO that was launched on Sat, 01 Jun 2024 UTC via an FALCON 9 launch vehicle from the Air Force Eastern Test Range (AFETR). Payload-class satellites include a variety of spacecraft equipped with specific instruments for various scientific and technological missions. These include communications satellites like Starlink; space stations such as the ISS; scientific satellites like the Hubble; Earth observation satellites from companies like Planet Labs, Umbra, and HawkEye 360; GPS; miniature CubeSats for education and research; and military/defense satellites.

Loading next visibility...
Identifier
59939, 2024-106T
Orbit
LEO
Country
Flag of USUS
Related business
Manufacturer
SpaceX/Seattle
Mission
Operational Commercial Communications
Bus & Motor
STARLINK V2M, Unknown motor
Mass
730 kg wet, ~700 kg dry
Launch date (UTC)
2024-06-01 (2 years ago)
Launch vehicle
FALCON 9
Launch site
Air Force Eastern Test Range (AFETR)
Object type
Payload
Rocket body
Debris
Shape & HBR
Box + 2 Pan, 17.7 m
Radar Cross Section
33.884 m², Large (>1 m²)

Expand to show TLE details & history
Last TLE update: 2 days ago

TLE from 2 days ago
0 STARLINK-31955
1 59939U 24106T   26171.25940527  .00001333  00000-0  57938-4 0  9995
2 59939  43.0005 112.8991 0001048 275.8138  84.2594 15.27578833116253
Epoch: 2026-06-20T06:13Z
TLE epoch observation values (Epoch: 2026-06-20T06:13:32.615Z)
Latitude
-0.00002°
Longitude
111.03659°
Altitude
482.756 km
Speed
7.626 km/s
True Right ascension
07h 31m 35s
True Declination
0° 00' 00"
Sunlit
Object was in daylight at epoch
Visualization orbit readout
Latitude
Unknown
Longitude
Unknown
Altitude
Unknown
Speed
Unknown
Apparent Right ascension
Unknown
Apparent Declination
Unknown
Sunlit
N/A
Visualization observer readout
Local Sidereal Time
21:43:02
Azimuth
Unknown
Elevation
Unknown
Doppler factor
Unknown
Orbital elements
Apogee altitude
485.717 km
Perigee altitude
484.278 km
Semi-major axis
6,863.135 km
Eccentricity
0.0001
Inclination
43.0005°
RAAN
112.8991°
Arg. of periapsis
275.8138°
True anomaly
84.27135°
Mean anomaly
84.2594°
Eccentric anomaly
84.26537°
Mean motion
3.81733 °/min
Orbital period
94.31 mins
BSTAR
0.000057938
Loading maneuver chart data...
Computing Atmospheric mass density...
Loading historical data...
Loading historical data...
Loading historical data...
Loading historical data...
Loading historical data...
Loading historical data...
Loading historical data...

Documentation

Showing up to 5 results
|